Debrecen, Hungary

6:26 AM CEST on July 28, 2016 (GMT +0200)
Debrecen

Weather History for LHDC - June, 2013

Change the Weather History Date:

Sunday, June 2, 2013

  Actual Average Record
Temperature  
Mean Temperature 59 °F -  
Max Temperature 69 °F 76 °F - ()
Min Temperature 50 °F 56 °F - ()
Degree Days  
Heating Degree Days 6    
Growing Degree Days 9 (Base 50)    
Moisture  
Dew Point 52 °F    
Average Humidity 77    
Maximum Humidity 94    
Minimum Humidity 52    
Precipitation  
Precipitation 0.02 in 0.10 in - ()
Sea Level Pressure  
Sea Level Pressure 29.76 in    
Wind  
Wind Speed 3 mph ()    
Max Wind Speed 7 mph    
Max Gust Speed -    
Visibility 6.7 miles    
Events Rain    
T = Trace of Precipitation, MM = Missing Value Source: Averaged Metar Reports

Daily Weather History Graph

Daily Weather History Graph

Search for Another Location

Airport or City:

Trip Planner

Search our weather history database for the weather conditions in past years. The results will help you decide how hot, cold, wet, or windy it might be!

Date:

Astronomy

Jun. 02, 2013 Rise Set
Actual Time 4:39 AM CEST 8:23 PM CEST
Civil Twilight 4:00 AM CEST 9:03 PM CEST
Nautical Twilight 3:07 AM CEST 9:56 PM CEST
Astronomical Twilight 1:52 AM CEST 11:12 PM CEST
Moon 1:21 AM CEST (6/2) 2:13 PM CEST (6/2)
Length of Visible Light 17h 02m
Length of Day
15h 43m
Waning Crescent, 33% of the Moon is Illuminated
Jun 2
Waning Crescent
Jun 8
New
Jun 16
First Quarter
Jun 23
Full
Jun 30
Last Quarter

Hourly Weather History & Observations

Time (CEST) Temp. Dew Point Humidity Pressure Visibility Wind Dir Wind Speed Gust Speed Precip Events Conditions
2:00 AM 53 °F 51 °F 90% 29.75 in - SE 4.5 mph - -  
4:45 AM 51.8 °F 50.0 °F 94% 29.74 in - SE 3.5 mph - N/A   Clear
5:15 AM 51.8 °F 50.0 °F 94% 29.74 in - ESE 2.3 mph - N/A   Clear
5:45 AM 51.8 °F 50.0 °F 94% 29.74 in - SE 2.3 mph - N/A   Clear
6:15 AM 53.6 °F 51.8 °F 94% 29.74 in - SE 2.3 mph - N/A   Clear
6:40 AM 53.6 °F 51.8 °F 94% 29.74 in - North - - N/A   Unknown
6:45 AM 53.6 °F 51.8 °F 94% 29.74 in 6.2 mi SE 2.3 mph - N/A Rain Light Rain
7:00 AM - - N/A% - 6.2 mi Variable 3.5 mph - N/A Rain Light Rain
7:15 AM 55.4 °F 51.8 °F 88% 29.77 in 6.2 mi ESE 3.5 mph - N/A Rain Light Rain
7:45 AM 55.4 °F 51.8 °F 88% 29.77 in 6.2 mi SSE 3.5 mph - N/A Rain Light Rain
8:00 AM 56 °F 52 °F 83% 29.77 in 12 mi SSE 4.5 mph - - Rain Light Rain
8:15 AM 55.4 °F 51.8 °F 88% 29.77 in 6.2 mi ESE 1.2 mph - N/A Rain Light Rain
8:45 AM 57.2 °F 51.8 °F 82% 29.77 in 6.2 mi South 1.2 mph - N/A Rain Light Rain
9:15 AM 59.0 °F 53.6 °F 82% 29.77 in 6.2 mi WSW 2.3 mph - N/A Rain Light Rain
9:45 AM 60.8 °F 55.4 °F 82% 29.77 in 6.2 mi NW 1.2 mph - N/A   Mostly Cloudy
10:07 AM - - N/A% - 6.2 mi Variable 3.5 mph - N/A   Mostly Cloudy
10:15 AM 60.8 °F 53.6 °F 77% 29.77 in 6.2 mi South 1.2 mph - N/A   Mostly Cloudy
10:45 AM 62.6 °F 51.8 °F 68% 29.77 in 6.2 mi WNW 1.2 mph - N/A   Mostly Cloudy
11:15 AM 64.4 °F 53.6 °F 68% 29.77 in 6.2 mi South 2.3 mph - N/A   Scattered Clouds
11:45 AM 64.4 °F 51.8 °F 64% 29.77 in 6.2 mi West 3.5 mph - N/A   Mostly Cloudy
12:15 PM 64.4 °F 51.8 °F 64% 29.77 in 6.2 mi West 3.5 mph - N/A   Mostly Cloudy
12:45 PM 64.4 °F 50.0 °F 59% 29.77 in 6.2 mi SE 2.3 mph - N/A   Scattered Clouds
1:00 PM - - N/A% - 6.2 mi Variable 3.5 mph - N/A   Mostly Cloudy
1:15 PM 64.4 °F 50.0 °F 59% 29.77 in 6.2 mi SE 4.6 mph - N/A Rain Light Rain Showers
1:45 PM 62.6 °F 55.4 °F 77% 29.77 in 6.2 mi South 5.8 mph - N/A Rain Light Rain Showers
2:00 PM 62 °F 55 °F 71% 29.78 in 12 mi South 6.7 mph - - Rain Light Rain Showers
2:15 PM 62.6 °F 55.4 °F 77% 29.77 in 6.2 mi South 4.6 mph - N/A   Scattered Clouds
2:45 PM 64.4 °F 55.4 °F 73% 29.77 in 6.2 mi WSW 4.6 mph - N/A   Scattered Clouds
3:15 PM 66.2 °F 48.2 °F 52% 29.77 in 6.2 mi SSE 3.5 mph - N/A   Scattered Clouds
3:45 PM 68.0 °F 51.8 °F 56% 29.77 in 6.2 mi SSW 4.6 mph - N/A   Partly Cloudy
4:15 PM 68.0 °F 51.8 °F 56% 29.77 in 6.2 mi South 1.2 mph - N/A   Partly Cloudy
6:00 PM - - N/A% - - North - - N/A   Unknown
8:00 PM 65 °F 52 °F 52% 29.78 in - North 4.5 mph - -